Weather History for Poplar Bluff, MO

Change the Weather History Date:

Tuesday, November 18, 2014

  Actual Average Record
Temperature  
Mean Temperature 23 °F -  
Max Temperature 32 °F 56 °F 82 °F (1930)
Min Temperature 14 °F 36 °F 14 °F (2014)
Degree Days  
Heating Degree Days 42    
Moisture  
Dew Point 9 °F    
Average Humidity 54    
Maximum Humidity 66    
Minimum Humidity 38    
Precipitation  
Precipitation 0.00 in - - ()
Sea Level Pressure  
Sea Level Pressure 30.36 in    
Wind  
Wind Speed 7 mph (SW)    
Max Wind Speed 10 mph    
Max Gust Speed 17 mph    
Visibility 10 miles    
Events      
Averages and records for this station are not official NWS values.
T = Trace of Precipitation, MM = Missing Value Source: NWS Daily Summary

Daily Weather History Graph

Daily Weather History Graph

Search for Another Location

Airport:

Trip Planner

Search our weather history database for the weather conditions in past years. The results will help you decide how hot, cold, wet, or windy it might be!

Date:

Astronomy

Nov. 18, 2014 Rise Set
Actual Time 6:42 AM CST 4:50 PM CST
Civil Twilight 6:14 AM CST 5:17 PM CST
Nautical Twilight 5:43 AM CST 5:49 PM CST
Astronomical Twilight 5:12 AM CST 6:20 PM CST
Moon 2:46 AM CST (11/18) 2:39 PM CST (11/18)
Length of Visible Light 11h 03m
Length of Day
10h 07m
Waning Crescent, 15% of the Moon is Illuminated
Nov 18
Waning Crescent
Nov 22
New
Nov 29
First Quarter
Dec 6
Full
Dec 14
Last Quarter

Hourly Weather History & Observations

Time (CST) Temp. Windchill Dew Point Humidity Pressure Visibility Wind Dir Wind Speed Gust Speed Precip Events Conditions
12:53 AM 19.0 °F 10.0 °F 3.9 °F 52% 30.35 in 10.0 mi WNW 6.9 mph - N/A   Clear
1:53 AM 18.0 °F 11.1 °F 3.9 °F 54% 30.36 in 10.0 mi WNW 4.6 mph - N/A   Clear
2:53 AM 18.0 °F 9.8 °F 3.0 °F 52% 30.36 in 10.0 mi West 5.8 mph - N/A   Clear
3:53 AM 17.1 °F 7.6 °F 3.9 °F 56% 30.37 in 10.0 mi West 6.9 mph - N/A   Clear
4:53 AM 15.1 °F 9.4 °F 3.9 °F 61% 30.38 in 10.0 mi WSW 3.5 mph - N/A   Clear
5:53 AM 14.0 °F 8.2 °F 3.9 °F 64% 30.40 in 10.0 mi WSW 3.5 mph - N/A   Clear
6:53 AM 14.0 °F 5.1 °F 3.9 °F 64% 30.42 in 10.0 mi SW 5.8 mph - N/A   Clear
7:53 AM 17.1 °F 5.8 °F 5.0 °F 59% 30.45 in 10.0 mi WSW 9.2 mph - N/A   Clear
8:53 AM 19.9 °F 9.3 °F 5.0 °F 52% 30.46 in 10.0 mi WNW 9.2 mph - N/A   Clear
9:53 AM 23.0 °F 13.9 °F 3.9 °F 44% 30.47 in 10.0 mi WNW 8.1 mph - N/A   Clear
10:53 AM 25.0 °F 14.8 °F 5.0 °F 43% 30.45 in 10.0 mi WNW 10.4 mph - N/A   Clear
11:53 AM 28.0 °F 21.7 °F 6.1 °F 39% 30.42 in 10.0 mi Variable 5.8 mph 17.3 mph N/A   Clear
12:53 PM 30.0 °F 22.4 °F 8.1 °F 40% 30.38 in 10.0 mi WSW 8.1 mph - N/A   Clear
1:53 PM 30.9 °F 22.8 °F 9.0 °F 40% 30.35 in 10.0 mi SSW 9.2 mph - N/A   Clear
2:53 PM 32.0 °F 23.6 °F 9.0 °F 38% 30.34 in 10.0 mi SW 10.4 mph - N/A   Clear
3:53 PM 32.0 °F 23.6 °F 12.0 °F 44% 30.33 in 10.0 mi SSW 10.4 mph - N/A   Clear
4:53 PM 30.9 °F 22.8 °F 15.1 °F 52% 30.33 in 10.0 mi South 9.2 mph - N/A   Clear
5:53 PM 28.9 °F 21.9 °F 16.0 °F 58% 30.32 in 10.0 mi South 6.9 mph - N/A   Clear
6:53 PM 28.0 °F 22.8 °F 17.1 °F 63% 30.32 in 10.0 mi South 4.6 mph - N/A   Clear
7:53 PM 28.0 °F 20.8 °F 16.0 °F 61% 30.32 in 10.0 mi South 6.9 mph - N/A   Clear
8:53 PM 27.0 °F 19.5 °F 16.0 °F 63% 30.30 in 10.0 mi South 6.9 mph - N/A   Clear
9:53 PM 28.0 °F 20.8 °F 17.1 °F 63% 30.28 in 10.0 mi SSW 6.9 mph - N/A   Clear
10:53 PM 28.0 °F 19.3 °F 18.0 °F 66% 30.25 in 10.0 mi SSW 9.2 mph - N/A   Clear
11:53 PM 28.0 °F 20.0 °F 18.0 °F 66% 30.24 in 10.0 mi South 8.1 mph - N/A   Clear